Tracking 30072 objects as of 14-Jan-2025
HD Live streaming from Space Station
objects crossing your sky now

BS-3B (YURI 3B)

Track BS-3B (YURI 3B) now!
BS-3B (YURI 3B) is classified as:


NORAD ID: 21668
Int'l Code: 1991-060A
Perigee: 36,193.7 km
Apogee: 36,234.4 km
Inclination: 13.4 °
Period: 1,457.6 minutes
Semi major axis: 42585 km
RCS: 1.6 m2 (large)
Launch date: August 25, 1991
Source: Japan (JPN)
Launch site: TANEGASHIMA SPACE CENTER (TNSTA)
Your satellite tracking list
Your tracking list is empty




NASA's NSSDC Master Catalog

Two Line Element Set (TLE):
1 21668U 91060A   25013.87835470 -.00000105  00000-0  00000+0 0  9998
2 21668  13.3860   0.2498 0004778 196.4176 158.6176  0.98790976124241
Source of the keplerian elements: AFSPC